[TLELIST] Archives

 

[list_settings.list_name] Current TLEs

September 5th 2011 PDT

HST 1 20580U 90037B 11247.55236903 .00000821 00000-0 49329-4 0 8308 2 20580 028.4687 217.9701 0003201 239.6109 120.4135 15.01478389971598 ISS (ZARYA) 1 25544U 98067A 11248.15643351 .00013951 00000-0 16943-3 0 136 2 25544 051.6385 118.2436 0012424 154.7489 345.3106 15.60812878733399 CXO 1 25867U 99040B 11248.29166667 -.00000454 00000-0 00000+0 0 6405 2 25867 070.0047 026.0772 8672296 277.0442 355.0813 00.37805818 8078 ____________________________________________________________________ These 2-Line ...Continue Reading

[list_settings.list_name] Current TLEs

September 4th 2011 PDT

HST 1 20580U 90037B 11244.22885997 .00000840 00000-0 50752-4 0 8293 2 20580 028.4691 239.6833 0003531 205.2218 154.8368 15.01474137971097 ISS (ZARYA) 1 25544U 98067A 11247.50274677 .00015253 00000-0 18474-3 0 87 2 25544 051.6394 121.5329 0012511 151.4100 273.2064 15.60795881733293 CXO 1 25867U 99040B 11248.29166667 -.00000454 00000-0 00000+0 0 6405 2 25867 070.0047 026.0772 8672296 277.0442 355.0813 00.37805818 8078 ____________________________________________________________________ These 2-Line ...Continue Reading

[list_settings.list_name] Current TLEs

September 3rd 2011 PDT

HST 1 20580U 90037B 11244.22885997 .00000840 00000-0 50752-4 0 8293 2 20580 028.4691 239.6833 0003531 205.2218 154.8368 15.01474137971097 ISS (ZARYA) 1 25544U 98067A 11246.46748843 .00029215 00000-0 34778-3 0 24 2 25544 051.6368 126.7476 0012319 148.1515 215.6782 15.60779083733139 CXO 1 25867U 99040B 11248.29166667 -.00000454 00000-0 00000+0 0 6405 2 25867 070.0047 026.0772 8672296 277.0442 355.0813 00.37805818 8078 ____________________________________________________________________ These 2-Line ...Continue Reading

[list_settings.list_name] Current TLEs

September 2nd 2011 PDT

HST 1 20580U 90037B 11244.22885997 .00000840 00000-0 50752-4 0 8293 2 20580 028.4691 239.6833 0003531 205.2218 154.8368 15.01474137971097 ISS (ZARYA) 1 25544U 98067A 11245.26762891 .00052978 00000-0 62429-3 0 9946 2 25544 051.6398 132.7914 0012618 143.1435 314.5648 15.60752413732940 CXO 1 25867U 99040B 11245.70833333 -.00000468 00000-0 00000+0 0 6392 2 25867 069.9836 026.2652 8668970 277.0076 003.4827 00.37808160 8068 ____________________________________________________________________ These 2-Line ...Continue Reading

[list_settings.list_name] Current TLEs

September 1st 2011 PDT

HST 1 20580U 90037B 11244.22885997 .00000840 00000-0 50752-4 0 8293 2 20580 028.4691 239.6833 0003531 205.2218 154.8368 15.01474137971097 ISS (ZARYA) 1 25544U 98067A 11244.30781449 .00014723 00000-0 17920-3 0 9885 2 25544 051.6385 137.6239 0012703 139.8451 321.4917 15.60696967732795 CXO 1 25867U 99040B 11245.70833333 -.00000468 00000-0 00000+0 0 6392 2 25867 069.9836 026.2652 8668970 277.0076 003.4827 00.37808160 8068 ____________________________________________________________________ These 2-Line ...Continue Reading

[list_settings.list_name] Current TLEs

August 31st 2011 PDT

HST 1 20580U 90037B 11241.23769089 .00000780 00000-0 46183-4 0 8289 2 20580 028.4697 259.2314 0003611 173.5020 186.5635 15.01469779970647 ISS (ZARYA) 1 25544U 98067A 11243.34811582 .00008485 00000-0 10616-3 0 9827 2 25544 051.6393 142.4527 0012629 136.1856 329.5308 15.60664373732647 CXO 1 25867U 99040B 11243.04166667 -.00000263 00000-0 00000+0 0 6388 2 25867 069.9628 026.4364 8662578 277.0025 000.4912 00.37801502 8055 ____________________________________________________________________ These 2-Line ...Continue Reading

[list_settings.list_name] Current TLEs

August 30th 2011 PDT

HST 1 20580U 90037B 11241.23769089 .00000780 00000-0 46183-4 0 8289 2 20580 028.4697 259.2314 0003611 173.5020 186.5635 15.01469779970647 ISS (ZARYA) 1 25544U 98067A 11242.32240861 .00014337 00000-0 17501-3 0 9766 2 25544 051.6399 147.6155 0012707 131.7844 327.2994 15.60648732732481 CXO 1 25867U 99040B 11243.04166667 -.00000263 00000-0 00000+0 0 6388 2 25867 069.9628 026.4364 8662578 277.0025 000.4912 00.37801502 8055 ____________________________________________________________________ These 2-Line ...Continue Reading

[list_settings.list_name] Current TLEs

August 29th 2011 PDT

HST 1 20580U 90037B 11241.23769089 .00000780 00000-0 46183-4 0 8289 2 20580 028.4697 259.2314 0003611 173.5020 186.5635 15.01469779970647 ISS (ZARYA) 1 25544U 98067A 11241.36247961 .00010982 00000-0 13573-3 0 9708 2 25544 051.6402 152.4440 0012890 128.7289 333.6042 15.60615475732336 CXO 1 25867U 99040B 11243.04166667 -.00000263 00000-0 00000+0 0 6388 2 25867 069.9628 026.4364 8662578 277.0025 000.4912 00.37801502 8055 ____________________________________________________________________ These 2-Line ...Continue Reading

[list_settings.list_name] Current TLEs

August 28th 2011 PDT

HST 1 20580U 90037B 11240.24063272 .00000732 00000-0 42595-4 0 8279 2 20580 028.4699 265.7458 0003689 165.2767 194.7937 15.01468224970494 ISS (ZARYA) 1 25544U 98067A 11240.40266326 .00009972 00000-0 12396-3 0 9651 2 25544 051.6398 157.2754 0013071 126.1388 340.1750 15.60589488732181 CXO 1 25867U 99040B 11240.41666667 -.00000189 00000-0 00000+0 0 6377 2 25867 069.9352 026.5870 8660366 277.0246 003.0550 00.37803324 8040 ____________________________________________________________________ These 2-Line ...Continue Reading

[list_settings.list_name] Current TLEs

August 27th 2011 PDT

HST 1 20580U 90037B 11239.24357414 .00000704 00000-0 40449-4 0 8265 2 20580 028.4703 272.2585 0003710 155.8142 204.2659 15.01466925970349 ISS (ZARYA) 1 25544U 98067A 11239.19548387 .00008309 00000-0 10448-3 0 9586 2 25544 051.6390 163.3527 0012971 120.9298 038.8248 15.60558723731998 CXO 1 25867U 99040B 11240.41666667 -.00000189 00000-0 00000+0 0 6377 2 25867 069.9352 026.5870 8660366 277.0246 003.0550 00.37803324 8040 ____________________________________________________________________ These 2-Line ...Continue Reading
  • This mailing list is a public mailing list - anyone may join or leave, at any time.
  • This mailing list is announce-only.

International Space Station (ISS) / Hubble Space Telescope (HST) / Chandra X-Ray Observatory Orbital Data via EMAIL

Privacy Policy:

Private list